Location: Casper
(42.8670°N, 106.3130°W)
Time: 23:31:43
(UTC-06:00)

Daily predictions for brighter satellites

Satellite Brightness Start Highest point End
(mag) Time Altitude Azimuth Time Altitude Azimuth Time Altitude Azimuth
Cosmos 1092 Rocket 4.3 20:16:20 10° N 20:22:32 53° ENE 20:28:42 10° SSE
Cosmos 2322 Rocket 3.3 20:20:10 10° SSE 20:24:20 22° E 20:28:32 10° NE
Cosmos 1707 Rocket 4.0 20:20:26 10° SSE 20:24:36 41° E 20:28:46 10° NNE
Cosmos 2034 Rocket 4.2 20:21:49 10° SSW 20:28:00 78° W 20:34:12 10° N
Spot 2 Rocket 3.5 20:24:07 10° SSE 20:29:12 85° ENE 20:34:19 10° NNW
Meteor 1-29 4.1 20:31:20 10° NE 20:34:15 24° E 20:37:08 10° SSE
Helios 1B rocket 3.0 20:31:06 10° NNE 20:34:53 35° E 20:38:39 10° SSE
CZ-2D R/B 3.3 20:31:34 10° SSE 20:35:28 88° ENE 20:39:23 10° NNW
Cosmos 1980 Rocket 2.2 20:30:10 10° SSW 20:35:49 77° ESE 20:41:33 10° NNE
Lacrosse 4 Rocket 2.7 20:32:13 10° N 20:35:55 27° NE 20:39:39 10° ESE
Cosmos 1110 Rocket 4.5 20:32:50 10° SSW 20:38:04 68° WNW 20:43:24 10° NNE
USA 267 4.0 20:31:43 10° NE 20:38:06 59° NNW 20:44:30 10° WSW
Resurs 1-3 3.7 20:34:18 10° S 20:38:41 81° WSW 20:43:06 10° NNW
Intercosmos 25 Rocket 4.3 20:36:59 10° SE 20:39:31 22° E 20:42:26 10° NE
Cosmos 1825 3.3 20:36:55 10° NNE 20:40:11 26° ENE 20:43:20 10° SE
Cosmos 1869 Rocket 3.6 20:36:56 10° N 20:41:27 83° E 20:45:55 10° S
Envisat 3.2 20:44:07 10° SSE 20:49:04 56° ENE 20:54:03 10° N
Cosmos 1302 Rocket 3.9 20:44:16 10° SSW 20:49:27 78° ESE 20:54:39 10° NNE
Cosmos 1939 Rocket 3.4 20:45:48 10° SE 20:49:37 41° ENE 20:53:26 10° N
CZ-4B DEB 3.0 20:48:17 11° SSE 20:51:04 44° ENE 20:54:00 10° N
SL-16 R/B 2.7 20:45:59 10° S 20:51:05 36° ESE 20:56:13 10° NE
Cosmos 2242 Rocket 4.1 20:47:06 10° SSE 20:51:18 39° E 20:55:29 10° NNE
SJ-11-01 4.5 20:50:05 10° SSE 20:54:38 54° ENE 20:59:11 10° N
ATLAS 5 CENTAUR R/B 3.6 20:56:06 10° NNW 21:01:10 29° NE 21:05:54 13° E
Cosmos 2195 Rocket 4.4 20:55:10 10° N 21:01:18 70° E 21:07:24 10° SSE
Cosmos 2279 Rocket 4.3 20:58:17 10° SSE 21:04:12 47° E 21:10:08 10° NNE
OAO 3 Rocket 4.2 21:00:07 10° SW 21:04:23 30° S 21:07:08 18° ESE
Resurs 01 Rocket 3.3 21:03:32 10° SSW 21:07:35 34° W 21:11:39 10° NNW
Helios 1A 3.2 21:04:27 10° S 21:08:39 74° WSW 21:12:56 10° NNW
Meteor 2-20 4.5 21:03:14 10° N 21:09:22 87° W 21:15:30 10° S
SAR-Lupe-4 3.9 21:07:35 10° S 21:11:08 68° WSW 21:14:44 10° NNW
USA 234 3.3 21:07:21 15° SE 21:13:00 78° SW 21:19:36 10° NW
Atlas Centaur 2 4.1 21:08:42 10° SSW 21:14:04 22° SSE 21:16:54 18° SE
ARGOS 4.3 21:11:51 18° ESE 21:14:38 27° ENE 21:19:05 10° N
BREEZE-M DEB (TANK) 3.8 21:17:46 10° W 21:21:00 65° N 21:30:10 10° E
ATLAS CENTAUR R/B 4.4 21:19:33 10° WSW 21:21:41 15° SW 21:25:04 10° S
Cosmos 1408 2.5 21:18:11 10° N 21:21:55 89° WSW 21:24:35 18° S
ERBS 2.5 21:21:07 10° NW 21:24:33 68° SW 21:26:02 31° SSE
ERS-1 Rocket 3.1 21:22:11 20° SE 21:25:32 60° ENE 21:30:29 10° N
Cosmos 1455 4.4 21:24:36 10° SW 21:27:53 27° WNW 21:31:11 10° NNW
Molniya-1 4.4 21:26:21 10° WSW 21:28:02 34° NW 21:30:16 10° NNE
Sich 1 Rocket 4.4 21:26:05 10° N 21:30:09 34° ENE 21:31:27 28° ESE
Cosmos 1869 4.3 21:28:34 10° SSW 21:32:21 46° WNW 21:36:12 10° N
Cosmos 220 Rocket 4.5 21:31:49 10° NNW 21:36:13 61° WSW 21:39:12 20° S
SeaSat 1 2.8 21:39:59 30° ESE 21:42:04 50° ENE 21:46:51 10° NNW
Cosmos 1992 Rocket 3.9 21:38:01 10° SSW 21:43:14 76° ESE 21:48:29 10° NNE
H-2A R/B 3.9 21:44:20 16° ENE 21:44:40 16° ENE 21:47:20 10° NNE
Cosmos 1908 Rocket 3.8 21:43:04 10° N 21:47:18 50° ENE 21:48:15 42° ESE
USA 245 4.5 21:46:03 31° SE 21:48:43 54° ENE 21:53:49 10° N
Milstar 3 4.0 21:43:38 10° WSW 21:49:10 23° SSW 21:50:57 21° S
MetOp-A 4.1 21:49:41 31° SSE 21:52:17 75° ENE 21:57:39 10° N
Cosmos 1933 3.4 21:50:29 21° SSW 21:53:05 78° W 21:57:08 10° N
USA 229 DEB 4.2 21:51:55 29° SSE 21:54:07 36° ESE 22:00:17 10° NE
USA 229 4.2 21:52:12 30° SE 21:54:13 35° ESE 22:00:22 10° NE
YAOGAN 6 3.3 21:54:40 29° SSW 21:56:14 50° W 21:59:47 10° NNW
Abrixas rocket 3.4 21:53:26 10° W 21:56:35 41° NNW 21:58:01 25° NE
Cosmos 1782 Rocket 4.0 21:57:02 10° N 22:01:11 41° ENE 22:01:20 41° E
Okean 2 Rocket 4.1 21:57:33 10° NNE 22:01:36 31° ENE 22:01:36 31° ENE
Cosmos 1867 3.9 21:56:19 10° NNW 22:01:40 53° NE 22:03:20 39° ESE
COSMOS 2428 4.0 22:05:01 23° ENE 22:05:01 23° ENE 22:08:05 10° NE
Cosmos 2263 Rocket 2.2 21:58:12 10° NNW 22:03:47 77° WSW 22:06:05 37° S
H-2A R/B 2.4 22:04:41 40° E 22:05:33 44° ENE 22:10:15 10° N
Terra 3.1 22:05:46 25° ENE 22:06:01 25° ENE 22:09:52 10° NNE
Cosmos 2322 Rocket 2.9 22:02:27 10° SW 22:07:55 55° WNW 22:13:27 10° NNE
Cosmos 1733 Rocket 4.3 22:04:44 10° NNW 22:08:53 39° W 22:11:34 19° SSW
Lacrosse 4 Rocket 2.8 22:10:46 10° NW 22:14:39 33° WSW 22:16:01 27° SW
Meteor 2-10 Rocket 3.8 22:11:52 22° SSW 22:15:48 83° W 22:21:39 10° N
SL-08 RB Rocket 3.6 22:16:00 64° SE 22:16:36 74° ENE 22:21:11 10° N
Cosmos 2360 Rocket 2.0 22:15:51 29° SSW 22:18:49 75° ESE 22:24:30 10° NNE
Meteor 1-20 Rocket 4.3 22:16:07 10° N 22:21:34 54° ENE 22:22:21 50° ESE
Cosmos 2322 3.6 22:22:28 42° S 22:24:25 72° ESE 22:30:07 10° NNE
Cosmos 968 Rocket 3.4 22:20:14 10° NNW 22:25:27 85° WSW 22:26:25 60° S
ASTEX 1 4.2 22:30:23 36° ENE 22:30:23 36° ENE 22:34:35 10° N
Okean 1-7 3.2 22:32:09 64° NE 22:32:09 64° NE 22:36:02 10° NNE
Cosmos 1782 4.4 22:34:53 26° NE 22:34:53 26° NE 22:36:56 10° NNE
Cosmos 1703 Rocket 3.8 22:34:29 61° WSW 22:35:00 68° W 22:39:27 10° N
SPOT 5 3.3 22:34:04 46° SSW 22:35:09 56° W 22:39:48 10° NNW
SL-16 R/B 3.7 22:30:00 10° WSW 22:35:10 35° WNW 22:40:22 10° N
Cosmos 2266 Rocket 4.1 22:29:46 10° NNW 22:36:00 72° W 22:38:21 40° SSW
Cosmos 2221 Rocket 3.5 22:37:29 80° NNW 22:37:29 80° NNW 22:41:42 10° N
CZ-4C R/B 4.1 22:35:26 10° NNW 22:41:28 31° NE 22:44:54 22° E
Cosmos 2333 Rocket 4.0 22:46:51 18° ENE 22:46:51 18° ENE 22:48:46 10° NE
ATLAS 5 CENTAUR R/B 2.5 22:40:22 10° NW 22:46:21 68° WSW 22:47:28 57° S
CARTOSAT-1 4.2 22:52:48 50° NNE 22:52:48 50° NNE 22:56:10 10° N
SPOT 1/Viking Rocket 3.9 22:52:06 53° SW 22:52:47 58° W 22:57:57 10° NNW
Cosmos 2237 Rocket 4.3 22:56:36 14° ENE 22:56:36 14° ENE 22:57:47 10° NE
ARGOS 4.0 22:53:21 36° SW 22:54:39 42° W 22:59:45 10° NNW
Cosmos 2278 Rocket 3.4 22:50:51 10° N 22:55:46 29° NE 22:56:09 29° ENE
Cosmos 1244 Rocket 4.3 22:50:03 10° N 22:56:19 79° E 22:56:56 71° SE
Meteor 1-27 Rocket 4.5 23:01:53 40° ENE 23:01:53 40° ENE 23:06:03 10° NNE
Atlas Centaur 2 4.1 22:55:49 10° SW 22:59:34 25° SSW 22:59:34 25° SSW
SL-19 R/B 4.3 22:57:30 10° NNE 23:03:40 78° ESE 23:03:46 78° ESE
Cosmos 1844 Rocket 2.6 23:02:02 10° NNW 23:07:23 77° NNE 23:07:23 77° NNE
Cosmos 1553 Rocket 4.1 23:07:58 59° ENE 23:07:58 59° ENE 23:13:47 10° NNE
SL-08 R/B 4.4 23:07:43 10° N 23:13:44 69° ENE 23:13:44 69° ENE
Meteor 1-10 Rocket 4.3 23:17:48 77° WSW 23:18:00 78° W 23:23:55 10° N
SeaSat 1 4.2 23:19:46 23° WSW 23:19:49 23° WSW 23:23:41 10° NW
H-2A R/B 3.3 23:21:27 37° NW 23:21:27 37° NW 23:24:27 10° NNW
Meteor 1-11 Rocket 3.9 23:15:47 10° N 23:20:33 61° NNE 23:20:33 61° NNE
Cosmos 2219 Rocket 2.9 23:27:00 43° NE 23:27:00 43° NE 23:30:48 10° NNE
S3M 3.9 23:36:14 79° N 23:36:14 79° N 23:42:04 10° N
NOSS 3-1 (C) 3.9 23:43:39 50° NE 23:43:39 50° NE 23:48:25 10° NE
Terra 3.2 23:44:38 33° WNW 23:44:38 33° WNW 23:48:00 10° NNW
USA 229 DEB 4.4 23:39:03 14° WSW 23:44:51 52° NW 23:51:39 10° NNE
USA 229 4.3 23:39:20 15° WSW 23:44:56 52° NW 23:51:45 10° NNE
H-2A R/B 3.8 23:45:19 22° W 23:45:19 22° W 23:49:01 10° NW
COSMOS 2428 3.4 23:46:58 47° WNW 23:47:26 49° WNW 23:52:58 10° NNE
